Location: Chagrin Falls Park
(41.4139°N, 81.3865°W)
Time: 06:14:43
(UTC+00:00)

STARLINK-2736 - Visible Passes

Search period start: 05 December 2021 00:00
Search period end: 15 December 2021 00:00
Orbit: 546 x 548 km, 53.1° (Epoch: 04 December)

Date Brightness Start Highest point End Pass type
(mag) Time Alt. Az. Time Alt. Az. Time Alt. Az.
05 Dec 5.6 23:38:57 10° NW 23:41:36 16° N 23:41:47 16° N visible
06 Dec 5.5 23:32:47 10° NW 23:35:30 17° N 23:35:47 17° N visible
07 Dec 5.4 23:26:34 10° NW 23:29:24 17° N 23:29:48 17° NNE visible
08 Dec 5.3 23:20:18 10° NNW 23:23:17 19° NNE 23:23:53 18° NNE visible
09 Dec 5.1 23:14:00 10° NW 23:17:10 21° NNE 23:18:01 19° NNE visible
10 Dec 6.5 00:53:11 10° NW 00:53:38 13° NW 00:53:38 13° NW visible
10 Dec 5.0 23:07:41 10° NW 23:11:02 23° NNE 23:12:16 20° NE visible
11 Dec 6.1 00:46:53 10° NW 00:47:53 17° NW 00:47:53 17° NW visible
11 Dec 4.8 23:01:21 10° NW 23:04:53 26° NNE 23:06:37 20° ENE visible
12 Dec 5.8 00:40:36 10° NW 00:42:15 23° WNW 00:42:15 23° WNW visible
12 Dec 4.5 22:55:01 10° NW 22:58:42 31° NNE 23:01:09 17° ENE visible
13 Dec 5.3 00:34:22 10° WNW 00:36:47 32° WNW 00:36:47 32° WNW visible
13 Dec 4.2 22:48:39 10° NW 22:52:31 37° NNE 22:55:54 13° E visible
14 Dec 5.0 00:28:12 10° WNW 00:31:34 37° WSW 00:31:34 37° WSW visible
14 Dec 3.9 22:42:19 10° NW 22:46:18 46° NNE 22:50:17 10° ESE visible
